SHIYAN-12 02 (SY-12 02)

Last updated on Thu Jul 03 2025 00:02:48 GMT+0000 (Coordinated Universal Time)

1 50322U 21129B 25183.75460080 -.00000030 00000+0 00000+0 0 9998 2 50322 2.7714 84.9114 0003792 326.0032 307.2724 1.00387982 13017
UTC large
Height (km)
Speed (km/s)
/
Latitude / Longitude
Inclination (degrees)
Orbital Period (minutes)
Azimuth
Elevation
Range (km)
Doppler Factor

Next 0 passes for location: London (51.5072 / 0.1276)

Sorry there are no passes over London.